| time (UTC) | temp F | wind direction | speed MPH | gust MPH | rain 1hr in | rain 24hr in | rain mn in | humidity % | barometer mb |
| 20260503000503 | 53 | 241 | 2.0 | 8.0 | 0.00 | 0.00 | 0.00 | 88 | 1014.4 |
| 20260503000003 | 53 | 207 | 2.0 | 7.0 | 0.00 | 0.00 | 0.00 | 87 | 1014.6 |
| 20260502235503 | 53 | 0 | 0.0 | 0.0 | 0.00 | 0.00 | 0.00 | 86 | 1014.0 |
| 20260502235003 | 52 | 0 | 0.0 | 0.0 | 0.00 | 0.00 | 0.00 | 86 | 1013.8 |
| 20260502234503 | 52 | 0 | 0.0 | 0.0 | 0.00 | 0.00 | 0.00 | 85 | 1014.0 |
| 20260502234003 | 52 | 0 | 0.0 | 0.0 | 0.00 | 0.00 | 0.00 | 85 | 1013.9 |
| 20260502233503 | 52 | 0 | 0.0 | 0.0 | 0.00 | 0.00 | 0.00 | 85 | 1013.7 |
| 20260502233003 | 52 | 0 | 0.0 | 0.0 | 0.00 | 0.00 | 0.00 | 84 | 1014.0 |
| 20260502232503 | 52 | 0 | 0.0 | 0.0 | 0.00 | 0.00 | 0.00 | 85 | 1013.9 |
| 20260502232003 | 53 | 0 | 0.0 | 0.0 | 0.00 | 0.00 | 0.00 | 85 | 1013.9 |
| 20260502231503 | 53 | 0 | 0.0 | 0.0 | 0.00 | 0.00 | 0.00 | 85 | 1013.8 |
| 20260502231003 | 53 | 0 | 0.0 | 0.0 | 0.00 | 0.00 | 0.00 | 85 | 1013.8 |
| 20260502230503 | 52 | 0 | 0.0 | 0.0 | 0.00 | 0.00 | 0.00 | 84 | 1014.1 |
| 20260502230003 | 53 | 0 | 0.0 | 0.0 | 0.00 | 0.00 | 0.00 | 84 | 1013.9 |
| 20260502225503 | 53 | 0 | 0.0 | 0.0 | 0.00 | 0.00 | 0.00 | 84 | 1013.8 |
| 20260502225003 | 53 | 0 | 0.0 | 0.0 | 0.00 | 0.00 | 0.00 | 84 | 1013.9 |
| 20260502224503 | 53 | 0 | 0.0 | 0.0 | 0.00 | 0.00 | 0.00 | 84 | 1014.0 |
| 20260502224003 | 53 | 0 | 0.0 | 0.0 | 0.00 | 0.00 | 0.00 | 83 | 1013.9 |
| 20260502223503 | 53 | 0 | 0.0 | 0.0 | 0.00 | 0.00 | 0.00 | 83 | 1014.1 |
| 20260502223003 | 53 | 0 | 0.0 | 0.0 | 0.00 | 0.00 | 0.00 | 83 | 1014.0 |
| 20260502222503 | 53 | 0 | 0.0 | 0.0 | 0.00 | 0.00 | 0.00 | 82 | 1014.0 |
| 20260502222003 | 53 | 0 | 0.0 | 0.0 | 0.00 | 0.00 | 0.00 | 82 | 1013.9 |
| 20260502221718 | 53 | 0 | 0.0 | 0.0 | 0.00 | 0.00 | 0.00 | 83 | 1013.8 |
| 20260502221003 | 53 | 0 | 0.0 | 0.0 | 0.00 | 0.00 | 0.00 | 82 | 1013.9 |
| 20260502220718 | 53 | 0 | 0.0 | 0.0 | 0.00 | 0.00 | 0.00 | 82 | 1013.8 |
| 20260502220003 | 53 | 0 | 0.0 | 0.0 | 0.00 | 0.00 | 0.00 | 82 | 1013.9 |
| 20260502215503 | 53 | 0 | 0.0 | 0.0 | 0.00 | 0.00 | 0.00 | 81 | 1013.8 |
| 20260502215003 | 53 | 0 | 0.0 | 0.0 | 0.00 | 0.00 | 0.00 | 81 | 1014.0 |
| 20260502214503 | 54 | 0 | 0.0 | 0.0 | 0.00 | 0.00 | 0.00 | 81 | 1013.9 |
| 20260502214003 | 54 | 0 | 0.0 | 0.0 | 0.00 | 0.00 | 0.00 | 81 | 1014.0 |
| 20260502213503 | 55 | 0 | 0.0 | 0.0 | 0.00 | 0.00 | 0.00 | 80 | 1014.1 |
| 20260502213003 | 55 | 0 | 0.0 | 0.0 | 0.00 | 0.00 | 0.00 | 80 | 1014.2 |
| 20260502212503 | 55 | 0 | 0.0 | 0.0 | 0.00 | 0.00 | 0.00 | 80 | 1014.1 |
| 20260502212217 | 55 | 0 | 0.0 | 0.0 | 0.00 | 0.00 | 0.00 | 79 | 1014.2 |
| 20260502211503 | 56 | 0 | 0.0 | 0.0 | 0.00 | 0.00 | 0.00 | 79 | 1014.3 |
| 20260502211003 | 56 | 0 | 0.0 | 0.0 | 0.00 | 0.00 | 0.00 | 79 | 1014.1 |
| 20260502210503 | 56 | 0 | 0.0 | 0.0 | 0.00 | 0.00 | 0.00 | 78 | 1014.4 |
| 20260502210003 | 56 | 0 | 0.0 | 0.0 | 0.00 | 0.00 | 0.00 | 78 | 1014.3 |
| 20260502205503 | 56 | 0 | 0.0 | 0.0 | 0.00 | 0.00 | 0.00 | 78 | 1014.3 |
| 20260502205003 | 57 | 0 | 0.0 | 0.0 | 0.00 | 0.00 | 0.00 | 78 | 1014.4 |
| 20260502204503 | 57 | 0 | 0.0 | 0.0 | 0.00 | 0.00 | 0.00 | 77 | 1014.5 |
| 20260502204217 | 57 | 0 | 0.0 | 0.0 | 0.00 | 0.00 | 0.00 | 77 | 1014.4 |
| 20260502203503 | 58 | 0 | 0.0 | 0.0 | 0.00 | 0.00 | 0.00 | 77 | 1014.5 |
| 20260502203003 | 58 | 0 | 0.0 | 0.0 | 0.00 | 0.00 | 0.00 | 77 | 1014.4 |
| 20260502202503 | 58 | 0 | 0.0 | 0.0 | 0.00 | 0.00 | 0.00 | 77 | 1014.5 |
| 20260502202216 | 58 | 0 | 0.0 | 0.0 | 0.00 | 0.00 | 0.00 | 77 | 1014.4 |
| 20260502201717 | 58 | 0 | 0.0 | 0.0 | 0.00 | 0.00 | 0.00 | 77 | 1014.5 |
| 20260502201003 | 58 | 0 | 0.0 | 0.0 | 0.00 | 0.00 | 0.00 | 76 | 1014.4 |
| 20260502200503 | 58 | 0 | 0.0 | 0.0 | 0.00 | 0.00 | 0.00 | 74 | 1014.6 |
| 20260502200003 | 58 | 0 | 0.0 | 0.0 | 0.00 | 0.00 | 0.00 | 74 | 1014.6 |
| 20260502195503 | 58 | 0 | 0.0 | 0.0 | 0.00 | 0.00 | 0.00 | 74 | 1014.6 |
| 20260502195216 | 58 | 0 | 0.0 | 0.0 | 0.00 | 0.00 | 0.00 | 74 | 1014.5 |
| 20260502194717 | 58 | 0 | 0.0 | 0.0 | 0.00 | 0.00 | 0.00 | 74 | 1014.6 |
| 20260502194003 | 58 | 0 | 0.0 | 0.0 | 0.00 | 0.00 | 0.00 | 73 | 1014.5 |
| 20260502193503 | 59 | 0 | 0.0 | 0.0 | 0.00 | 0.00 | 0.00 | 72 | 1014.5 |
| 20260502193218 | 59 | 0 | 0.0 | 0.0 | 0.00 | 0.00 | 0.00 | 72 | 1014.6 |
| 20260502192503 | 60 | 0 | 0.0 | 0.0 | 0.00 | 0.00 | 0.00 | 70 | 1014.2 |
| 20260502192003 | 60 | 0 | 0.0 | 0.0 | 0.00 | 0.00 | 0.00 | 70 | 1014.3 |
| 20260502191503 | 61 | 0 | 0.0 | 0.0 | 0.00 | 0.00 | 0.00 | 69 | 1014.3 |
| 20260502191218 | 61 | 0 | 0.0 | 0.0 | 0.00 | 0.00 | 0.00 | 68 | 1014.3 |
| 20260502190717 | 62 | 0 | 0.0 | 0.0 | 0.00 | 0.00 | 0.00 | 68 | 1014.1 |
| 20260502190003 | 62 | 0 | 0.0 | 0.0 | 0.00 | 0.00 | 0.00 | 67 | 1014.2 |
| 20260502185503 | 62 | 0 | 0.0 | 0.0 | 0.00 | 0.00 | 0.00 | 67 | 1014.5 |
| 20260502185003 | 63 | 0 | 0.0 | 0.0 | 0.00 | 0.00 | 0.00 | 66 | 1014.2 |
| 20260502184503 | 63 | 0 | 0.0 | 1.0 | 0.00 | 0.00 | 0.00 | 65 | 1014.4 |
| 20260502184003 | 63 | 192 | 0.0 | 1.0 | 0.00 | 0.00 | 0.00 | 64 | 1014.4 |
| 20260502183503 | 64 | 197 | 0.0 | 1.0 | 0.00 | 0.00 | 0.00 | 63 | 1014.3 |
| 20260502183003 | 64 | 206 | 0.0 | 1.0 | 0.00 | 0.00 | 0.00 | 62 | 1014.4 |
| 20260502182503 | 64 | 0 | 0.0 | 0.0 | 0.00 | 0.00 | 0.00 | 60 | 1014.3 |
| 20260502182003 | 65 | 0 | 0.0 | 0.0 | 0.00 | 0.00 | 0.00 | 59 | 1014.3 |
| 20260502181503 | 65 | 265 | 0.0 | 3.0 | 0.00 | 0.00 | 0.00 | 58 | 1014.4 |
| 20260502181218 | 65 | 265 | 0.0 | 3.0 | 0.00 | 0.00 | 0.00 | 57 | 1014.3 |
| 20260502180503 | 65 | 0 | 0.0 | 0.0 | 0.00 | 0.00 | 0.00 | 55 | 1014.3 |
| 20260502170503 | 69 | 169 | 0.0 | 4.0 | 0.00 | 0.00 | 0.00 | 48 | 1014.2 |
| 20260502164217 | 71 | 177 | 1.0 | 5.0 | 0.00 | 0.00 | 0.00 | 45 | 1014.0 |
| 20260502163503 | 72 | 215 | 1.0 | 4.0 | 0.00 | 0.00 | 0.00 | 42 | 1013.9 |
| 20260502163005 | 73 | 212 | 0.0 | 3.0 | 0.00 | 0.00 | 0.00 | 40 | 1014.1 |
| 20260502162503 | 73 | 226 | 1.0 | 3.0 | 0.00 | 0.00 | 0.00 | 40 | 1014.0 |
| 20260502162003 | 73 | 267 | 1.0 | 3.0 | 0.00 | 0.00 | 0.00 | 38 | 1014.0 |
| 20260502161503 | 73 | 152 | 1.0 | 7.0 | 0.00 | 0.00 | 0.00 | 38 | 1013.8 |
| 20260502161217 | 73 | 186 | 1.0 | 7.0 | 0.00 | 0.00 | 0.00 | 39 | 1013.8 |
| 20260502160503 | 73 | 201 | 0.0 | 7.0 | 0.00 | 0.00 | 0.00 | 40 | 1014.1 |
| 20260502151503 | 72 | 235 | 2.0 | 10.0 | 0.00 | 0.00 | 0.00 | 41 | 1014.1 |
| 20260502151003 | 72 | 223 | 2.0 | 10.0 | 0.00 | 0.00 | 0.00 | 40 | 1014.2 |
| 20260502150503 | 73 | 237 | 1.0 | 7.0 | 0.00 | 0.00 | 0.00 | 41 | 1014.3 |
| 20260502130503 | 75 | 234 | 5.0 | 12.0 | 0.00 | 0.00 | 0.00 | 35 | 1015.5 |
| 20260502123503 | 75 | 239 | 4.0 | 14.0 | 0.00 | 0.00 | 0.00 | 38 | 1015.7 |
| 20260502123003 | 75 | 223 | 4.0 | 14.0 | 0.00 | 0.00 | 0.00 | 37 | 1015.8 |
| 20260502122503 | 75 | 230 | 4.0 | 12.0 | 0.00 | 0.00 | 0.00 | 39 | 1015.7 |
| 20260502122003 | 75 | 249 | 3.0 | 10.0 | 0.00 | 0.00 | 0.00 | 38 | 1015.9 |
| 20260502121717 | 75 | 248 | 3.0 | 10.0 | 0.00 | 0.00 | 0.00 | 38 | 1015.9 |
| 20260502121003 | 75 | 226 | 4.0 | 10.0 | 0.00 | 0.00 | 0.00 | 38 | 1016.2 |
| 20260502120716 | 75 | 204 | 4.0 | 11.0 | 0.00 | 0.00 | 0.00 | 37 | 1016.1 |
| 20260502115716 | 74 | 212 | 4.0 | 14.0 | 0.00 | 0.00 | 0.00 | 37 | 1016.4 |
| 20260502115003 | 74 | 227 | 4.0 | 14.0 | 0.00 | 0.00 | 0.00 | 38 | 1016.3 |
| 20260502114503 | 74 | 237 | 3.0 | 8.0 | 0.00 | 0.00 | 0.00 | 40 | 1016.2 |
| 20260502114003 | 74 | 244 | 3.0 | 11.0 | 0.00 | 0.00 | 0.00 | 39 | 1016.3 |
| 20260502113503 | 74 | 221 | 4.0 | 12.0 | 0.00 | 0.00 | 0.00 | 39 | 1016.5 |
| 20260502113003 | 74 | 198 | 4.0 | 14.0 | 0.00 | 0.00 | 0.00 | 40 | 1016.6 |
| 20260502112718 | 73 | 213 | 4.0 | 19.0 | 0.00 | 0.00 | 0.00 | 41 | 1016.5 |
| 20260502112003 | 73 | 244 | 4.0 | 19.0 | 0.00 | 0.00 | 0.00 | 40 | 1016.8 |
| 20260502111503 | 73 | 232 | 3.0 | 10.0 | 0.00 | 0.00 | 0.00 | 41 | 1016.7 |
| 20260502111003 | 73 | 228 | 3.0 | 11.0 | 0.00 | 0.00 | 0.00 | 42 | 1016.7 |
| 20260502110503 | 72 | 225 | 3.0 | 11.0 | 0.00 | 0.00 | 0.00 | 42 | 1016.7 |
| 20260502110003 | 72 | 226 | 4.0 | 8.0 | 0.00 | 0.00 | 0.00 | 43 | 1017.0 |
| 20260502105718 | 72 | 209 | 3.0 | 8.0 | 0.00 | 0.00 | 0.00 | 43 | 1016.7 |
| 20260502105003 | 72 | 222 | 3.0 | 14.0 | 0.00 | 0.00 | 0.00 | 43 | 1016.9 |
| 20260502104503 | 72 | 235 | 3.0 | 14.0 | 0.00 | 0.00 | 0.00 | 44 | 1017.0 |
| 20260502104003 | 71 | 225 | 4.0 | 14.0 | 0.00 | 0.00 | 0.00 | 44 | 1017.0 |
| 20260502103718 | 71 | 198 | 3.0 | 11.0 | 0.00 | 0.00 | 0.00 | 44 | 1017.0 |
| 20260502103003 | 71 | 193 | 4.0 | 10.0 | 0.00 | 0.00 | 0.00 | 45 | 1017.1 |
| 20260502102718 | 71 | 221 | 4.0 | 10.0 | 0.00 | 0.00 | 0.00 | 46 | 1017.0 |
| 20260502102217 | 71 | 219 | 3.0 | 8.0 | 0.00 | 0.00 | 0.00 | 46 | 1017.1 |
| 20260502101718 | 70 | 186 | 3.0 | 8.0 | 0.00 | 0.00 | 0.00 | 48 | 1017.0 |
| 20260502101003 | 70 | 225 | 3.0 | 8.0 | 0.00 | 0.00 | 0.00 | 48 | 1017.4 |
| 20260502100503 | 70 | 238 | 3.0 | 8.0 | 0.00 | 0.00 | 0.00 | 48 | 1017.5 |
| 20260502091003 | 67 | 211 | 2.0 | 8.0 | 0.00 | 0.00 | 0.00 | 54 | 1017.9 |
| 20260502090503 | 67 | 200 | 3.0 | 12.0 | 0.00 | 0.00 | 0.00 | 54 | 1018.2 |
| 20260502071503 | 61 | 213 | 3.0 | 8.0 | 0.00 | 0.00 | 0.00 | 61 | 1018.7 |
| 20260502071003 | 61 | 215 | 3.0 | 8.0 | 0.00 | 0.00 | 0.00 | 61 | 1018.7 |
| 20260502070503 | 60 | 205 | 4.0 | 8.0 | 0.00 | 0.00 | 0.00 | 61 | 1018.8 |
| 20260502070003 | 60 | 197 | 3.0 | 8.0 | 0.00 | 0.00 | 0.00 | 61 | 1018.8 |
| 20260502065503 | 60 | 199 | 3.0 | 11.0 | 0.00 | 0.00 | 0.00 | 62 | 1018.7 |
| 20260502065003 | 60 | 202 | 2.0 | 11.0 | 0.00 | 0.00 | 0.00 | 62 | 1018.7 |
| 20260502064503 | 60 | 217 | 2.0 | 8.0 | 0.00 | 0.00 | 0.00 | 62 | 1019.0 |
| 20260502064003 | 59 | 232 | 2.0 | 8.0 | 0.00 | 0.00 | 0.00 | 62 | 1018.9 |
| 20260502063503 | 59 | 222 | 2.0 | 8.0 | 0.00 | 0.00 | 0.00 | 63 | 1019.1 |
| 20260502063217 | 59 | 196 | 2.0 | 7.0 | 0.00 | 0.00 | 0.00 | 63 | 1019.1 |
| 20260502062503 | 58 | 186 | 2.0 | 8.0 | 0.00 | 0.00 | 0.00 | 64 | 1018.9 |
| 20260502062217 | 58 | 191 | 2.0 | 8.0 | 0.00 | 0.00 | 0.00 | 64 | 1019.0 |
| 20260502061503 | 58 | 184 | 2.0 | 10.0 | 0.00 | 0.00 | 0.00 | 64 | 1018.8 |
| 20260502061003 | 57 | 203 | 3.0 | 10.0 | 0.00 | 0.00 | 0.00 | 64 | 1018.9 |
| 20260502060503 | 57 | 216 | 2.0 | 7.0 | 0.00 | 0.00 | 0.00 | 64 | 1019.0 |
| 20260502060003 | 57 | 213 | 2.0 | 7.0 | 0.00 | 0.00 | 0.00 | 65 | 1019.1 |
| 20260502055503 | 56 | 212 | 2.0 | 7.0 | 0.00 | 0.00 | 0.00 | 65 | 1018.9 |
| 20260502055003 | 56 | 202 | 2.0 | 7.0 | 0.00 | 0.00 | 0.00 | 66 | 1019.0 |
| 20260502054503 | 56 | 199 | 2.0 | 7.0 | 0.00 | 0.00 | 0.00 | 66 | 1018.9 |
| 20260502054003 | 55 | 192 | 1.0 | 7.0 | 0.00 | 0.00 | 0.00 | 67 | 1019.1 |
| 20260502053503 | 55 | 207 | 1.0 | 7.0 | 0.00 | 0.00 | 0.00 | 67 | 1019.1 |
| 20260502053003 | 54 | 212 | 1.0 | 7.0 | 0.00 | 0.00 | 0.00 | 67 | 1019.1 |
| 20260502052503 | 54 | 195 | 1.0 | 5.0 | 0.00 | 0.00 | 0.00 | 67 | 1019.2 |
| 20260502052003 | 54 | 184 | 1.0 | 5.0 | 0.00 | 0.00 | 0.00 | 67 | 1019.1 |
| 20260502051503 | 54 | 178 | 1.0 | 5.0 | 0.00 | 0.00 | 0.00 | 67 | 1019.0 |
| 20260502051003 | 54 | 192 | 1.0 | 5.0 | 0.00 | 0.00 | 0.00 | 68 | 1019.1 |
| 20260502050503 | 54 | 186 | 1.0 | 5.0 | 0.00 | 0.00 | 0.00 | 68 | 1019.1 |
| 20260502050003 | 54 | 176 | 1.0 | 5.0 | 0.00 | 0.00 | 0.00 | 68 | 1019.0 |
| 20260502045503 | 53 | 170 | 0.0 | 5.0 | 0.00 | 0.00 | 0.00 | 68 | 1019.1 |
| 20260502045003 | 53 | 187 | 1.0 | 5.0 | 0.00 | 0.00 | 0.00 | 68 | 1019.1 |
| 20260502044503 | 53 | 185 | 1.0 | 5.0 | 0.00 | 0.00 | 0.00 | 67 | 1019.0 |
| 20260502044003 | 53 | 189 | 1.0 | 5.0 | 0.00 | 0.00 | 0.00 | 67 | 1019.0 |
| 20260502043503 | 53 | 200 | 1.0 | 5.0 | 0.00 | 0.00 | 0.00 | 67 | 1019.2 |
| 20260502043003 | 53 | 210 | 0.0 | 5.0 | 0.00 | 0.00 | 0.00 | 67 | 1019.2 |
| 20260502042503 | 53 | 214 | 0.0 | 5.0 | 0.00 | 0.00 | 0.00 | 67 | 1019.2 |
| 20260502042003 | 53 | 206 | 0.0 | 5.0 | 0.00 | 0.00 | 0.00 | 67 | 1019.2 |
| 20260502041503 | 53 | 202 | 1.0 | 4.0 | 0.00 | 0.00 | 0.00 | 66 | 1019.5 |
| 20260502041003 | 53 | 209 | 1.0 | 4.0 | 0.00 | 0.00 | 0.00 | 66 | 1019.3 |
| 20260502040503 | 53 | 213 | 0.0 | 3.0 | 0.00 | 0.00 | 0.00 | 66 | 1019.4 |
| 20260502040003 | 53 | 214 | 0.0 | 5.0 | 0.00 | 0.00 | 0.00 | 66 | 1019.3 |
| 20260502035503 | 53 | 224 | 1.0 | 5.0 | 0.00 | 0.00 | 0.00 | 66 | 1019.4 |
| 20260502035003 | 53 | 218 | 0.0 | 5.0 | 0.00 | 0.00 | 0.00 | 66 | 1019.7 |
| 20260502034503 | 53 | 203 | 1.0 | 4.0 | 0.00 | 0.00 | 0.00 | 65 | 1019.4 |
| 20260502034003 | 54 | 225 | 1.0 | 3.0 | 0.00 | 0.00 | 0.00 | 65 | 1019.8 |
| 20260502033503 | 53 | 215 | 1.0 | 4.0 | 0.00 | 0.00 | 0.00 | 65 | 1019.6 |
| 20260502033003 | 54 | 204 | 1.0 | 4.0 | 0.00 | 0.00 | 0.00 | 65 | 1019.6 |
| 20260502032503 | 54 | 212 | 1.0 | 4.0 | 0.00 | 0.00 | 0.00 | 65 | 1019.7 |
| 20260502032003 | 54 | 209 | 1.0 | 4.0 | 0.00 | 0.00 | 0.00 | 65 | 1019.5 |
| 20260502031503 | 54 | 203 | 1.0 | 7.0 | 0.00 | 0.00 | 0.00 | 65 | 1019.8 |
| 20260502031003 | 54 | 201 | 1.0 | 7.0 | 0.00 | 0.00 | 0.00 | 64 | 1019.7 |
| 20260502030503 | 54 | 204 | 1.0 | 8.0 | 0.00 | 0.00 | 0.00 | 64 | 1019.9 |
| 20260502030003 | 54 | 206 | 1.0 | 8.0 | 0.00 | 0.00 | 0.00 | 64 | 1019.9 |
| 20260502025503 | 54 | 200 | 1.0 | 5.0 | 0.00 | 0.00 | 0.00 | 64 | 1019.9 |
| 20260502025218 | 54 | 203 | 1.0 | 5.0 | 0.00 | 0.00 | 0.00 | 64 | 1020.0 |
| 20260502024503 | 54 | 221 | 1.0 | 5.0 | 0.00 | 0.00 | 0.00 | 63 | 1019.9 |
| 20260502024003 | 54 | 210 | 1.0 | 5.0 | 0.00 | 0.00 | 0.00 | 63 | 1019.9 |
| 20260502023503 | 54 | 175 | 1.0 | 4.0 | 0.00 | 0.00 | 0.00 | 63 | 1019.9 |
| 20260502023003 | 55 | 186 | 1.0 | 5.0 | 0.00 | 0.00 | 0.00 | 62 | 1020.0 |
| 20260502022503 | 55 | 214 | 1.0 | 5.0 | 0.00 | 0.00 | 0.00 | 62 | 1020.4 |
| 20260502022218 | 55 | 228 | 1.0 | 5.0 | 0.00 | 0.00 | 0.00 | 62 | 1020.3 |
| 20260502021503 | 55 | 196 | 1.0 | 5.0 | 0.00 | 0.00 | 0.00 | 61 | 1020.3 |
| 20260502021003 | 55 | 198 | 1.0 | 5.0 | 0.00 | 0.00 | 0.00 | 61 | 1020.2 |
| 20260502020503 | 55 | 193 | 1.0 | 5.0 | 0.00 | 0.00 | 0.00 | 61 | 1020.4 |
| 20260502020218 | 55 | 183 | 1.0 | 5.0 | 0.00 | 0.00 | 0.00 | 61 | 1020.4 |
| 20260502015503 | 56 | 181 | 2.0 | 7.0 | 0.00 | 0.00 | 0.00 | 61 | 1020.6 |
| 20260502015218 | 56 | 199 | 2.0 | 7.0 | 0.00 | 0.00 | 0.00 | 61 | 1020.5 |
| 20260502014503 | 56 | 217 | 2.0 | 7.0 | 0.00 | 0.00 | 0.00 | 61 | 1020.8 |
| 20260502014003 | 56 | 193 | 1.0 | 7.0 | 0.00 | 0.00 | 0.00 | 61 | 1020.6 |
| 20260502013503 | 56 | 187 | 1.0 | 7.0 | 0.00 | 0.00 | 0.00 | 61 | 1020.7 |
| 20260502013217 | 56 | 204 | 1.0 | 7.0 | 0.00 | 0.00 | 0.00 | 61 | 1020.6 |
| 20260502012503 | 56 | 209 | 2.0 | 8.0 | 0.00 | 0.00 | 0.00 | 60 | 1020.7 |
| 20260502012003 | 56 | 200 | 2.0 | 8.0 | 0.00 | 0.00 | 0.00 | 60 | 1020.8 |
| 20260502011503 | 56 | 193 | 2.0 | 8.0 | 0.00 | 0.00 | 0.00 | 60 | 1020.7 |
| 20260502011003 | 56 | 172 | 1.0 | 7.0 | 0.00 | 0.00 | 0.00 | 60 | 1021.0 |
| 20260502010503 | 56 | 178 | 1.0 | 7.0 | 0.00 | 0.00 | 0.00 | 60 | 1021.0 |
| 20260502010003 | 56 | 184 | 1.0 | 7.0 | 0.00 | 0.00 | 0.00 | 59 | 1021.0 |
| 20260502005503 | 56 | 184 | 2.0 | 8.0 | 0.00 | 0.00 | 0.00 | 59 | 1021.1 |
| 20260502005003 | 56 | 198 | 2.0 | 8.0 | 0.00 | 0.00 | 0.00 | 59 | 1021.2 |
| 20260502004503 | 56 | 200 | 2.0 | 8.0 | 0.00 | 0.00 | 0.00 | 59 | 1021.1 |
| 20260502004217 | 57 | 194 | 2.0 | 7.0 | 0.00 | 0.00 | 0.00 | 59 | 1021.3 |
| 20260502003503 | 57 | 202 | 1.0 | 7.0 | 0.00 | 0.00 | 0.00 | 59 | 1021.4 |
| 20260502003217 | 57 | 199 | 2.0 | 14.0 | 0.00 | 0.00 | 0.00 | 58 | 1021.3 |
| 20260502002503 | 57 | 201 | 2.0 | 14.0 | 0.00 | 0.00 | 0.00 | 58 | 1021.4 |
| 20260502002004 | 57 | 225 | 2.0 | 7.0 | 0.00 | 0.00 | 0.00 | 58 | 1021.5 |
| 20260502001503 | 57 | 197 | 2.0 | 5.0 | 0.00 | 0.00 | 0.00 | 58 | 1021.6 |
| 20260502001217 | 58 | 165 | 2.0 | 8.0 | 0.00 | 0.00 | 0.00 | 58 | 1021.5 |